This is the latest recevied weather packets stored in our database for station/object KD9JJA. If no packets are shown the sender has not sent any weather packets the latest 10 day(s).
| Time | Temp. | Humidity | Pressure | Rain* | Wind** | Luminosity | Snow |
|---|---|---|---|---|---|---|---|
| 1777884519 | 12.78° C | 76% | 1010.7 hPa | 0 mm | - | 0 W/m² | - |
| 1777884216 | 11.67° C | 79% | 1010.9 hPa | 0 mm | - | 0 W/m² | - |
| 1777883912 | 11.11° C | 85% | 1011 hPa | 0 mm | - | 0 W/m² | - |
| 1777883609 | 11.67° C | 87% | 1010.7 hPa | 0 mm | - | 0 W/m² | - |
| 1777883305 | 11.67° C | 87% | 1010.8 hPa | 0 mm | - | 0 W/m² | - |
| 1777883001 | 11.67° C | 83% | 1011 hPa | 0 mm | - | 0 W/m² | - |
| 1777882698 | 11.11° C | 81% | 1011.1 hPa | 0 mm | - | 0 W/m² | - |
| 1777882395 | 11.67° C | 79% | 1011 hPa | 0 mm | - | 0 W/m² | - |
| 1777882091 | 11.67° C | 80% | 1011.1 hPa | 0 mm | - | 0 W/m² | - |
| 1777881788 | 11.67° C | 79% | 1011.1 hPa | 0 mm | - | 0 W/m² | - |
| 1777881485 | 11.67° C | 78% | 1011 hPa | 0 mm | - | 0 W/m² | - |
| 1777881182 | 11.67° C | 77% | 1010.8 hPa | 0 mm | - | 0 W/m² | - |
| 1777880880 | 11.67° C | 76% | 1010.8 hPa | 0 mm | - | 0 W/m² | - |
| 1777880577 | 11.67° C | 77% | 1010.9 hPa | 0 mm | - | 0 W/m² | - |
| 1777880275 | 11.67° C | 76% | 1010.9 hPa | 0 mm | - | 0 W/m² | - |
| 1777879973 | 11.67° C | 76% | 1010.9 hPa | 0 mm | - | 0 W/m² | - |
| 1777879671 | 11.67° C | 75% | 1010.9 hPa | 0 mm | - | 0 W/m² | - |
| 1777879367 | 12.22° C | 74% | 1011.1 hPa | 0 mm | - | 0 W/m² | - |
| 1777879065 | 11.67° C | 75% | 1011.1 hPa | 0 mm | - | 0 W/m² | - |
| 1777878762 | 12.22° C | 76% | 1011.3 hPa | 0 mm | - | 0 W/m² | - |
| 1777878460 | 12.22° C | 75% | 1011.3 hPa | 0 mm | - | 0 W/m² | - |
| 1777878155 | 12.22° C | 75% | 1011.5 hPa | 0 mm | - | 0 W/m² | - |
| 1777877852 | 12.22° C | 75% | 1011.6 hPa | 0 mm | - | 0 W/m² | - |
| 1777877549 | 12.22° C | 74% | 1011.6 hPa | 0 mm | - | 0 W/m² | - |
| 1777877245 | 12.22° C | 74% | 1011.8 hPa | 0 mm | - | 0 W/m² | - |
* Rain latest hour (hover to see other rain measurements)
** Current wind speed in m/s (hover to see current wind gust speed)